TimeEST,TemperatureF,Dew PointF,Humidity,Sea Level PressureIn,VisibilityMPH,Wind Direction,Wind SpeedMPH,Gust SpeedMPH,PrecipitationIn,Events,Conditions,WindDirDegrees,DateUTC
12:15 AM,13.5,9.3,84,30.04,10.0,WNW,6.9,-,N/A,,Clear,290,2013-03-03 05:15:00
12:35 AM,13.5,9.5,84,30.04,10.0,WNW,4.6,-,N/A,,Clear,290,2013-03-03 05:35:00
12:55 AM,9.1,6.3,88,30.03,10.0,West,3.5,-,N/A,,Clear,260,2013-03-03 05:55:00
1:15 AM,8.4,6.1,90,30.03,10.0,Calm,Calm,-,N/A,,Clear,0,2013-03-03 06:15:00
1:35 AM,5.7,3.0,89,30.03,10.0,Calm,Calm,-,N/A,,Clear,0,2013-03-03 06:35:00
1:55 AM,7.5,5.5,92,30.03,10.0,Calm,Calm,-,N/A,,Clear,0,2013-03-03 06:55:00
2:15 AM,3.9,1.2,89,30.03,10.0,Calm,Calm,-,N/A,,Clear,0,2013-03-03 07:15:00
2:34 AM,0.9,-2.2,87,30.03,10.0,Calm,Calm,-,N/A,,Clear,0,2013-03-03 07:34:00
2:55 AM,0.1,-3.1,86,30.02,7.0,Calm,Calm,-,N/A,,Clear,0,2013-03-03 07:55:00
3:15 AM,-1.3,-5.4,83,30.01,10.0,Calm,Calm,-,N/A,,Clear,0,2013-03-03 08:15:00
3:34 AM,-2.9,-6.7,84,30.01,5.0,Calm,Calm,-,N/A,,Clear,0,2013-03-03 08:34:00
3:55 AM,-1.7,-5.4,84,30.01,10.0,Calm,Calm,-,N/A,,Clear,0,2013-03-03 08:55:00
4:15 AM,-5.6,-10.3,80,30.01,10.0,Calm,Calm,-,N/A,,Clear,0,2013-03-03 09:15:00
4:34 AM,-4.2,-7.8,84,30.01,10.0,Calm,Calm,-,N/A,,Clear,0,2013-03-03 09:34:00
4:55 AM,-6.0,-10.5,81,30.01,10.0,Calm,Calm,-,N/A,,Clear,0,2013-03-03 09:55:00
5:15 AM,-4.7,-8.3,84,30.01,10.0,Calm,Calm,-,N/A,,Clear,0,2013-03-03 10:15:00
5:34 AM,-5.3,-9.4,82,30.01,10.0,Calm,Calm,-,N/A,,Clear,0,2013-03-03 10:34:00
5:55 AM,-6.0,-10.7,80,30.01,10.0,Calm,Calm,-,N/A,,Clear,0,2013-03-03 10:55:00
6:15 AM,-7.2,-12.1,79,30.01,10.0,Calm,Calm,-,N/A,,Clear,0,2013-03-03 11:15:00
6:34 AM,-6.0,-10.1,82,30.01,10.0,Calm,Calm,-,N/A,,Clear,0,2013-03-03 11:34:00
6:55 AM,-6.7,-11.4,80,30.01,10.0,Calm,Calm,-,N/A,,Clear,0,2013-03-03 11:55:00
7:15 AM,-6.0,-10.5,81,30.01,10.0,Calm,Calm,-,N/A,,Clear,0,2013-03-03 12:15:00
7:35 AM,-6.7,-11.6,79,30.01,10.0,Calm,Calm,-,N/A,,Clear,0,2013-03-03 12:35:00
7:55 AM,-6.2,-10.5,82,30.02,10.0,Calm,Calm,-,N/A,,Clear,0,2013-03-03 12:55:00
8:15 AM,-2.7,-6.5,84,30.02,10.0,Calm,Calm,-,N/A,,Clear,0,2013-03-03 13:15:00
8:35 AM,2.7,-1.1,84,30.02,7.0,Calm,Calm,-,N/A,,Clear,0,2013-03-03 13:35:00
8:55 AM,3.7,0.1,85,30.02,10.0,Calm,Calm,-,N/A,,Clear,0,2013-03-03 13:55:00
9:15 AM,6.4,3.2,87,30.02,10.0,Calm,Calm,-,N/A,,Clear,0,2013-03-03 14:15:00
9:35 AM,8.8,5.2,85,30.02,10.0,Calm,Calm,-,N/A,,Clear,0,2013-03-03 14:35:00
9:55 AM,15.3,10.2,80,30.01,10.0,North,5.8,-,N/A,,Clear,350,2013-03-03 14:55:00
10:15 AM,16.5,8.4,70,30.01,10.0,NNW,9.2,12.7,N/A,,Clear,340,2013-03-03 15:15:00
10:35 AM,18.5,10.2,70,30.01,10.0,NNW,10.4,-,N/A,,Clear,340,2013-03-03 15:35:00
10:55 AM,19.2,9.9,67,30.01,10.0,NW,9.2,-,N/A,,Clear,310,2013-03-03 15:55:00
11:15 AM,20.1,10.0,65,30.01,10.0,NNW,10.4,-,N/A,,Clear,330,2013-03-03 16:15:00
11:35 AM,21.0,10.4,64,30.01,10.0,NNW,6.9,-,N/A,,Clear,330,2013-03-03 16:35:00
11:55 AM,21.7,11.1,64,30.01,10.0,WNW,9.2,16.1,N/A,,Clear,290,2013-03-03 16:55:00
12:14 PM,21.7,11.3,64,30.00,10.0,WNW,10.4,-,N/A,,Clear,290,2013-03-03 17:14:00
12:35 PM,22.1,10.4,61,30.00,10.0,WNW,6.9,-,N/A,,Clear,300,2013-03-03 17:35:00
12:55 PM,23.5,11.3,60,29.99,10.0,WNW,12.7,-,N/A,,Clear,290,2013-03-03 17:55:00
1:14 PM,23.9,11.1,58,29.99,10.0,WNW,9.2,-,N/A,,Clear,300,2013-03-03 18:14:00
1:35 PM,23.7,10.4,57,29.98,10.0,NW,12.7,16.1,N/A,,Clear,320,2013-03-03 18:35:00
1:55 PM,26.1,11.7,55,29.98,10.0,NW,11.5,16.1,N/A,,Clear,310,2013-03-03 18:55:00
2:14 PM,26.1,11.1,53,29.97,10.0,WNW,9.2,-,N/A,,Clear,300,2013-03-03 19:14:00
2:35 PM,26.1,11.7,55,29.97,10.0,NNW,11.5,17.3,N/A,,Clear,330,2013-03-03 19:35:00
2:55 PM,26.1,10.2,51,29.97,10.0,NW,10.4,19.6,N/A,,Clear,320,2013-03-03 19:55:00
3:15 PM,26.1,10.6,52,29.97,10.0,WNW,9.2,17.3,N/A,,Clear,300,2013-03-03 20:15:00
3:35 PM,26.1,10.9,53,29.97,10.0,NNW,10.4,-,N/A,,Clear,330,2013-03-03 20:35:00
3:55 PM,26.1,10.9,53,29.97,10.0,NNW,9.2,-,N/A,,Clear,340,2013-03-03 20:55:00
4:15 PM,25.3,10.2,53,29.98,10.0,NNW,13.8,20.7,N/A,,Clear,330,2013-03-03 21:15:00
4:55 PM,24.8,9.9,53,29.99,10.0,NNW,12.7,18.4,N/A,,Clear,330,2013-03-03 21:55:00
5:15 PM,23.5,9.3,55,29.99,10.0,NNW,12.7,-,N/A,,Clear,330,2013-03-03 22:15:00
5:35 PM,22.8,9.7,57,30.00,10.0,NW,11.5,-,N/A,,Clear,310,2013-03-03 22:35:00
5:55 PM,22.3,9.5,58,30.00,10.0,NW,11.5,18.4,N/A,,Clear,320,2013-03-03 22:55:00
6:15 PM,21.2,9.7,61,30.00,10.0,NW,8.1,-,N/A,,Clear,320,2013-03-03 23:15:00
6:35 PM,21.0,9.5,61,30.01,10.0,NW,9.2,-,N/A,,Clear,310,2013-03-03 23:35:00
6:55 PM,19.8,9.5,64,30.01,10.0,NW,8.1,-,N/A,,Clear,320,2013-03-03 23:55:00
7:15 PM,18.7,8.8,65,30.01,10.0,NW,5.8,-,N/A,,Clear,310,2013-03-04 00:15:00
7:35 PM,18.5,9.3,67,30.02,10.0,NW,4.6,-,N/A,,Clear,310,2013-03-04 00:35:00
7:54 PM,16.0,8.2,72,30.02,10.0,NW,4.6,-,N/A,,Clear,310,2013-03-04 00:54:00
8:15 PM,15.8,9.0,74,30.02,10.0,Calm,Calm,-,N/A,,Clear,0,2013-03-04 01:15:00
8:35 PM,11.7,6.3,79,30.03,10.0,Calm,Calm,-,N/A,,Clear,0,2013-03-04 01:35:00
8:55 PM,10.9,7.2,85,30.03,10.0,Calm,Calm,-,N/A,,Clear,0,2013-03-04 01:55:00
9:15 PM,8.8,5.7,87,30.03,10.0,Calm,Calm,-,N/A,,Clear,0,2013-03-04 02:15:00
9:35 PM,7.3,4.8,89,30.03,10.0,Calm,Calm,-,N/A,,Clear,0,2013-03-04 02:35:00
9:55 PM,5.9,2.8,87,30.03,10.0,Calm,Calm,-,N/A,,Scattered Clouds,0,2013-03-04 02:55:00
10:15 PM,3.7,0.9,88,30.03,10.0,Calm,Calm,-,N/A,,Scattered Clouds,0,2013-03-04 03:15:00
10:35 PM,1.6,-1.5,87,30.03,10.0,West,3.5,-,N/A,,Clear,280,2013-03-04 03:35:00
10:55 PM,2.5,-0.6,87,30.04,10.0,Calm,Calm,-,N/A,,Scattered Clouds,0,2013-03-04 03:55:00
11:15 PM,3.6,0.5,87,30.03,10.0,Calm,Calm,-,N/A,,Mostly Cloudy,0,2013-03-04 04:15:00
11:35 PM,6.3,4.1,91,30.04,10.0,Calm,Calm,-,N/A,,Overcast,0,2013-03-04 04:35:00
11:55 PM,5.9,3.6,90,30.04,10.0,NW,3.5,-,N/A,,Overcast,310,2013-03-04 04:55:00